When you browse on this site, cookies collect data to enhance your experience and personalize the content and advertising you see.
Visit our Privacy Policy to learn more. By continuing to use the site, you agree to this use of cookies and data.
  • In Hungary
  • List of Countries
  • For 7 days
  • Water Temperature
  • Satellite Maps
  • Weather Map
  • News
  • Weather Widgets
  • user-avatar
    Login

    Hourly Weather Navbakhor

    Today, 19 December, Wednesday

    Time Temperature Precipitation Wind Pressure Humidity
    00:00 +6°C° 0.4 mm 2 mps 743 mmHg 74%
    01:00 +6°C° 0.4 mm 2 mps 743 mmHg 76%
    02:00 +5°C° 0.4 mm 2 mps 743 mmHg 79%
    03:00 +5°C° 0.5 mm 2 mps 743 mmHg 81%
    04:00 +5°C° 0.5 mm 2 mps 743 mmHg 82%
    05:00 +5°C° 0 mm 2 mps 743 mmHg 85%
    06:00 +5°C° 0.4 mm 2 mps 743 mmHg 86%
    07:00 +5°C° 0.4 mm 2 mps 743 mmHg 87%
    08:00 +4°C° 0.4 mm 2 mps 743 mmHg 88%
    09:00 +3°C° 0.3 mm 3 mps 743 mmHg 87%
    10:00 +3°C° 0.3 mm 3 mps 744 mmHg 86%
    11:00 +4°C° 0.3 mm 3 mps 744 mmHg 86%
    12:00 +3°C° 0.5 mm 3 mps 744 mmHg 85%
    13:00 +3°C° 0.5 mm 3 mps 744 mmHg 85%
    14:00 +3°C° 0.5 mm 4 mps 745 mmHg 84%
    15:00 +3°C° 0.7 mm 4 mps 745 mmHg 85%
    16:00 +1°C° 0.7 mm 4 mps 746 mmHg 86%
    17:00 +1°C° 0.7 mm 4 mps 746 mmHg 87%
    18:00 +2°C° 0.6 mm 3 mps 747 mmHg 88%
    19:00 +1°C° 0.6 mm 3 mps 747 mmHg 89%
    20:00 +1°C° 0.6 mm 3 mps 748 mmHg 89%
    21:00 +1°C° 0.4 mm 3 mps 749 mmHg 90%
    22:00 +1°C° 0.4 mm 3 mps 749 mmHg 90%
    23:00 0°C° 0.4 mm 3 mps 749 mmHg 90%

    Tomorrow, 20 December, Thursday

    Time Temperature Precipitation Wind Pressure Humidity
    00:00 +1°C° 0.4 mm 2 mps 750 mmHg 90%
    01:00 +1°C° 0.4 mm 2 mps 750 mmHg 90%
    02:00 +1°C° 0.4 mm 2 mps 750 mmHg 90%
    03:00 -1°C° 0.1 mm 2 mps 751 mmHg 90%
    04:00 -1°C° 0.1 mm 2 mps 751 mmHg 90%
    05:00 -1°C° 0.1 mm 2 mps 751 mmHg 89%
    06:00 -2°C° 0 mm 2 mps 752 mmHg 90%
    07:00 -2°C° 0 mm 2 mps 752 mmHg 90%
    08:00 0°C° 0 mm 1 mps 753 mmHg 90%
    09:00 +1°C° 0 mm 1 mps 753 mmHg 87%
    10:00 +1°C° 0 mm 1 mps 753 mmHg 85%
    11:00 +1°C° 0 mm 1 mps 753 mmHg 82%
    12:00 +2°C° 0 mm 1 mps 752 mmHg 80%
    13:00 +2°C° 0 mm 1 mps 752 mmHg 77%
    14:00 +2°C° 0 mm 0 mps 752 mmHg 75%
    15:00 +3°C° 0 mm 1 mps 752 mmHg 77%
    16:00 +2°C° 0 mm 1 mps 752 mmHg 79%
    17:00 +2°C° 0 mm 1 mps 752 mmHg 82%
    18:00 +2°C° 0 mm 1 mps 752 mmHg 84%
    19:00 +1°C° 0 mm 1 mps 752 mmHg 86%
    20:00 +1°C° 0 mm 1 mps 752 mmHg 89%
    21:00 +1°C° 0 mm 1 mps 752 mmHg 89%
    22:00 +1°C° 0 mm 1 mps 751 mmHg 89%
    23:00 +1°C° 0 mm 1 mps 751 mmHg 90%

    Day after tomorrow, 21 December, Friday

    Time Temperature Precipitation Wind Pressure Humidity
    00:00 +1°C° 0 mm 1 mps 751 mmHg 88%
    01:00 +1°C° 0 mm 1 mps 750 mmHg 86%
    02:00 +1°C° 0 mm 1 mps 750 mmHg 84%
    03:00 +1°C° 0 mm 1 mps 749 mmHg 81%
    04:00 +1°C° 0 mm 1 mps 749 mmHg 79%
    05:00 +1°C° 0 mm 1 mps 748 mmHg 76%
    06:00 +1°C° 0 mm 1 mps 748 mmHg 74%
    07:00 +1°C° 0 mm 1 mps 747 mmHg 72%
    08:00 +1°C° 0 mm 1 mps 747 mmHg 69%
    09:00 +2°C° 0 mm 1 mps 747 mmHg 64%
    10:00 +4°C° 0 mm 1 mps 746 mmHg 59%
    11:00 +5°C° 0 mm 1 mps 746 mmHg 54%
    12:00 +6°C° 0 mm 1 mps 745 mmHg 52%
    13:00 +6°C° 0 mm 2 mps 744 mmHg 50%
    14:00 +6°C° 0 mm 2 mps 743 mmHg 48%
    15:00 +5°C° 0 mm 2 mps 743 mmHg 51%
    16:00 +5°C° 0 mm 2 mps 743 mmHg 54%
    17:00 +4°C° 0 mm 2 mps 743 mmHg 58%
    18:00 +4°C° 0 mm 2 mps 743 mmHg 58%
    19:00 +4°C° 0 mm 2 mps 743 mmHg 59%
    20:00 +5°C° 0 mm 1 mps 742 mmHg 59%
    21:00 +5°C° 0 mm 1 mps 742 mmHg 59%
    22:00 +5°C° 0 mm 1 mps 742 mmHg 59%
    23:00 +5°C° 0 mm 1 mps 741 mmHg 59%

    22 December, Saturday

    Time Temperature Precipitation Wind Pressure Humidity
    00:00 +5°C° 0 mm 1 mps 741 mmHg 59%
    01:00 +5°C° 0 mm 1 mps 741 mmHg 60%
    02:00 +5°C° 0 mm 1 mps 741 mmHg 60%
    03:00 +5°C° 0 mm 1 mps 741 mmHg 60%
    04:00 +5°C° 0 mm 1 mps 741 mmHg 60%
    05:00 +5°C° 0 mm 1 mps 740 mmHg 61%
    06:00 +5°C° 0 mm 1 mps 741 mmHg 62%
    07:00 +5°C° 0 mm 1 mps 741 mmHg 63%
    08:00 +5°C° 0 mm 1 mps 741 mmHg 64%
    09:00 +6°C° 0 mm 1 mps 741 mmHg 63%
    10:00 +6°C° 0 mm 1 mps 742 mmHg 62%
    11:00 +7°C° 0 mm 1 mps 742 mmHg 61%
    12:00 +6°C° 0 mm 0 mps 742 mmHg 59%
    13:00 +7°C° 0 mm 0 mps 742 mmHg 57%
    14:00 +7°C° 0 mm 0 mps 742 mmHg 55%
    15:00 +7°C° 0 mm 0 mps 742 mmHg 58%
    16:00 +6°C° 0 mm 0 mps 742 mmHg 60%
    17:00 +6°C° 0 mm 0 mps 742 mmHg 63%
    18:00 +6°C° 0.1 mm 0 mps 743 mmHg 64%
    19:00 +6°C° 0.1 mm 0 mps 743 mmHg 65%
    20:00 +5°C° 0.1 mm 0 mps 743 mmHg 66%
    21:00 +5°C° 0.1 mm 0 mps 744 mmHg 67%
    22:00 +6°C° 0.1 mm 1 mps 744 mmHg 68%
    23:00 +6°C° 0.1 mm 1 mps 744 mmHg 69%

    23 December, Sunday

    Time Temperature Precipitation Wind Pressure Humidity
    00:00 +6°C° 0.1 mm 1 mps 744 mmHg 71%
    01:00 +6°C° 0.1 mm 1 mps 744 mmHg 73%
    02:00 +6°C° 0.1 mm 1 mps 744 mmHg 76%
    03:00 +5°C° 0 mm 1 mps 744 mmHg 77%
    04:00 +5°C° 0 mm 1 mps 744 mmHg 79%
    05:00 +5°C° 0 mm 1 mps 744 mmHg 80%
    06:00 +5°C° 0 mm 1 mps 744 mmHg 81%
    07:00 +5°C° 0 mm 1 mps 744 mmHg 83%
    08:00 +5°C° 0 mm 1 mps 745 mmHg 84%
    09:00 +5°C° 0 mm 1 mps 745 mmHg 81%
    10:00 +6°C° 0 mm 1 mps 745 mmHg 77%
    11:00 +7°C° 0 mm 1 mps 745 mmHg 74%
    12:00 +8°C° 0 mm 1 mps 745 mmHg 71%
    13:00 +8°C° 0 mm 1 mps 744 mmHg 69%
    14:00 +9°C° 0 mm 1 mps 744 mmHg 66%
    15:00 +8°C° 0 mm 1 mps 744 mmHg 68%
    16:00 +8°C° 0 mm 1 mps 745 mmHg 70%
    17:00 +8°C° 0 mm 1 mps 745 mmHg 72%
    18:00 +7°C° 0 mm 1 mps 745 mmHg 75%
    19:00 +7°C° 0 mm 1 mps 745 mmHg 77%
    20:00 +6°C° 0 mm 1 mps 745 mmHg 79%
    21:00 +6°C° 0 mm 1 mps 745 mmHg 80%
    22:00 +6°C° 0 mm 1 mps 745 mmHg 82%
    23:00 +6°C° 0 mm 1 mps 745 mmHg 83%

    24 December, Monday

    Time Temperature Precipitation Wind Pressure Humidity
    00:00 +6°C° 0 mm 1 mps 745 mmHg 84%
    01:00 +5°C° 0 mm 1 mps 745 mmHg 84%
    02:00 +5°C° 0 mm 1 mps 745 mmHg 85%
    03:00 +5°C° 0 mm 1 mps 745 mmHg 85%
    04:00 +5°C° 0 mm 1 mps 745 mmHg 85%
    05:00 +4°C° 0 mm 0 mps 745 mmHg 85%
    06:00 +4°C° 0 mm 0 mps 745 mmHg 85%
    07:00 +4°C° 0 mm 0 mps 745 mmHg 85%
    08:00 +3°C° 0 mm 0 mps 746 mmHg 85%
    09:00 +6°C° 0 mm 1 mps 745 mmHg 79%
    10:00 +7°C° 0 mm 1 mps 745 mmHg 73%
    11:00 +8°C° 0 mm 1 mps 745 mmHg 68%
    12:00 +9°C° 0 mm 1 mps 745 mmHg 63%
    13:00 +10°C° 0 mm 1 mps 744 mmHg 59%
    14:00 +10°C° 0 mm 1 mps 744 mmHg 55%
    15:00 +10°C° 0 mm 1 mps 744 mmHg 58%
    16:00 +9°C° 0 mm 1 mps 744 mmHg 61%
    17:00 +9°C° 0 mm 1 mps 744 mmHg 64%
    18:00 +8°C° 0 mm 1 mps 744 mmHg 67%
    19:00 +8°C° 0 mm 1 mps 744 mmHg 70%
    20:00 +6°C° 0 mm 2 mps 744 mmHg 73%
    21:00 +7°C° 0 mm 1 mps 744 mmHg 73%
    22:00 +7°C° 0 mm 1 mps 744 mmHg 74%
    23:00 +7°C° 0 mm 1 mps 744 mmHg 74%
    Show more